STARLINK-34520, 64486

Orbit data source: Space-Track

STARLINK-34520, 64486 is a payload satellite owned by SpaceX/Seattle (US) in LEO that was launched on Mon, 23 Jun 2025 UTC via an FALCON 9 launch vehicle from the Air Force Eastern Test Range (AFETR). Payload-class satellites include a variety of spacecraft equipped with specific instruments for various scientific and technological missions. These include communications satellites like Starlink; space stations such as the ISS; scientific satellites like the Hubble; Earth observation satellites from companies like Planet Labs, Umbra, and HawkEye 360; GPS; miniature CubeSats for education and research; and military/defense satellites.

Loading next visibility...
Identifier
64486, 2025-133Q
Orbit
LEO
Country
Flag of USUS
Related business
Manufacturer
SpaceX/Seattle
Mission
Operational Commercial Communications
Bus & Motor
STARLINK V2MO, Unknown motor
Mass
575 kg wet, ~530 kg dry
Launch date (UTC)
2025-06-23 (1 year ago)
Launch vehicle
FALCON 9
Launch site
Air Force Eastern Test Range (AFETR)
Object type
Payload
Rocket body
Debris
Shape & HBR
Box + 2 Pan, 17.7 m
Radar Cross Section
36.964 m², Large (>1 m²)

Expand to show TLE details & history
Last TLE update: 1 day ago

TLE from 1 day ago
0 STARLINK-34520
1 64486U 25133Q   26170.83060489  .00009300  00000-0  32572-3 0  9990
2 64486  53.1596   2.5727 0001673 100.7447 259.3742 15.30201194 56821
Epoch: 2026-06-19T19:56Z
TLE epoch observation values (Epoch: 2026-06-19T19:56:04.262Z)
Latitude
-0.00003°
Longitude
155.50097°
Altitude
476.323 km
Speed
7.629 km/s
True Right ascension
00h 10m 17s
True Declination
0° 00' 00"
Sunlit
Object was in daylight at epoch
Visualization orbit readout
Latitude
Unknown
Longitude
Unknown
Altitude
Unknown
Speed
Unknown
Apparent Right ascension
Unknown
Apparent Declination
Unknown
Sunlit
N/A
Visualization observer readout
Local Sidereal Time
07:16:03
Azimuth
Unknown
Elevation
Unknown
Doppler factor
Unknown
Orbital elements
Apogee altitude
476.615 km
Perigee altitude
474.321 km
Semi-major axis
6,853.605 km
Eccentricity
0.00017
Inclination
53.1596°
RAAN
2.5727°
Arg. of periapsis
100.7447°
True anomaly
259.35536°
Mean anomaly
259.3742°
Eccentric anomaly
259.36478°
Mean motion
3.82529 °/min
Orbital period
94.11 mins
BSTAR
0.00032572
Loading maneuver chart data...
Computing Atmospheric mass density...
Loading historical data...
Loading historical data...
Loading historical data...
Loading historical data...
Loading historical data...
Loading historical data...
Loading historical data...

Documentation

Showing up to 5 results
|